Location: Isola Pescaroli
(45.0500°N, 10.1667°E)
Time: 01:00:52
(UTC+00:00)

SL-4 R/B - Pass Details

Date: 16 June 2021
Orbit: 428 x 662 km, 51.6° (Epoch: 29 July)

Event Time Altitude Azimuth Distance (km) Brightness Sun altitude
Exits shadow 22:29:52 18° 85° (E) 1,274 3.8 -20.6°
Drops below altitude 10° 22:31:02 10° 75° (ENE) 1,673 4.5 -20.7°
Sets 22:33:15 0° 66° (ENE) 2,518 5.6 -20.7°
